Theta_e
327 325 328 331 335 341 343 345 346 347 347 347 347 348 349 349 349 349 349 349 349 349 348 349 349 349 349 350 350 350 350 350 351 350 351 350 350 350 350 350 349 350 350 349 349 348 348 348 346 345 345 345 343 344 344 344 345 347 348 349 349 349 349 349 350 351 352 352 353 356 357 357 355 355 356 355 356 356 356 354 355 356 357 356 356
321 324 327 332 333 340 341 343 344 345 346 346 347 347 348 348 348 348 349 349 349 348 348 349 349 349 349 349 349 349 349 349 350 350 350 350 350 350 350 350 349 349 350 350 350 349 349 348 348 348 346 345 343 341 342 342 343 344 346 347 348 348 348 349 350 351 351 352 352 353 353 355 357 357 355 355 355 355 355 353 353 355 353 354 355
321 324 326 331 332 337 338 339 340 342 343 343 343 343 345 345 346 347 347 348 348 348 348 348 348 348 348 348 348 348 349 349 349 349 350 349 349 348 349 349 349 349 350 350 350 349 348 349 349 348 347 346 344 343 343 343 343 344 345 346 347 347 348 348 349 350 350 351 352 351 350 352 354 356 357 357 356 355 355 353 353 353 353 356 357
320 322 325 331 334 334 336 336 337 338 338 339 340 341 341 342 343 344 345 347 347 347 347 347 347 348 348 347 348 347 348 348 349 349 350 349 349 348 348 348 348 348 349 349 349 350 349 350 348 348 347 346 346 345 345 345 345 345 346 346 347 348 348 348 350 350 350 350 351 349 351 354 354 355 357 357 356 356 353 353 352 354 356 356 356
319 321 325 330 334 332 333 334 335 335 336 337 337 338 339 340 341 342 343 343 344 345 344 345 345 345 346 346 346 346 347 347 348 349 349 349 348 347 347 347 347 348 348 349 348 348 348 348 348 348 348 348 348 348 347 347 347 347 346 346 347 348 348 349 350 350 349 349 349 349 347 351 355 355 356 357 356 355 353 352 353 355 356 356 356
317 321 324 328 330 331 330 332 333 334 334 335 336 336 337 338 339 340 339 340 341 342 343 344 344 344 344 345 346 346 345 346 347 347 348 347 347 347 346 347 347 347 347 348 348 348 346 348 348 348 347 347 348 349 349 347 348 348 347 347 348 349 349 350 350 349 349 346 345 348 348 351 353 353 356 356 356 355 353 353 355 355 355 355 356
317 320 323 326 328 328 329 330 332 333 333 333 334 335 335 336 336 337 337 337 339 341 341 341 342 342 342 342 344 344 345 345 345 345 346 345 345 345 345 345 346 346 347 348 348 347 347 347 347 347 347 347 346 348 348 347 347 348 348 348 348 348 348 349 350 349 346 346 340 344 346 348 352 355 353 355 354 353 354 355 354 355 355 355 355
317 319 321 324 325 327 328 329 330 332 332 332 332 333 334 334 334 334 334 335 336 337 337 338 338 339 340 340 341 341 341 341 342 341 339 340 341 343 343 344 345 345 345 346 346 347 347 346 346 346 346 346 346 346 346 346 346 347 348 348 348 348 348 348 349 347 345 348 343 343 345 347 348 351 352 354 355 355 354 354 355 356 355 355 353
314 315 319 322 323 324 326 328 329 330 330 331 331 331 331 331 331 331 332 333 334 334 334 334 334 335 336 336 336 337 336 336 336 335 335 336 337 338 340 342 343 344 344 345 346 347 346 346 346 346 346 346 345 345 345 346 346 346 347 347 348 348 348 349 347 344 346 348 347 343 343 346 347 347 348 351 355 356 355 355 353 356 355 353 349
311 314 317 320 322 322 325 325 327 328 329 329 329 329 329 329 329 329 330 331 331 331 330 330 330 330 331 332 332 332 332 332 331 331 331 332 333 334 336 339 340 340 341 341 343 344 346 346 346 346 346 346 345 344 345 345 345 345 346 346 346 347 347 348 346 343 348 348 347 348 347 347 343 343 345 349 351 352 353 349 349 350 351 350 349
308 310 314 318 319 320 322 324 325 325 326 326 327 327 326 326 326 326 327 328 328 328 326 326 326 327 328 328 328 329 329 328 328 327 328 329 330 332 333 335 335 335 335 336 338 340 341 343 344 345 345 345 343 344 344 344 345 345 345 345 346 346 347 346 342 346 346 347 347 348 346 345 350 346 345 348 350 351 351 348 347 349 350 352 352
305 308 312 315 316 317 320 321 322 324 324 324 325 325 325 325 324 324 324 325 326 325 324 323 323 323 324 324 324 324 325 325 324 324 325 326 328 329 330 330 330 330 331 331 333 336 338 340 340 340 341 342 342 343 343 344 344 344 344 345 345 346 346 344 346 344 346 345 346 347 348 347 346 346 349 350 351 351 350 350 351 352 352 352 353
305 305 308 311 315 313 316 319 319 321 322 323 323 323 323 323 323 323 322 323 323 323 322 321 321 321 322 322 323 322 322 322 322 322 322 324 325 326 326 327 327 327 328 328 329 332 334 335 335 335 334 335 336 337 339 340 341 342 343 343 344 345 344 339 345 343 343 344 344 346 348 348 349 348 349 351 351 351 352 352 353 352 352 352 353
304 304 306 307 308 309 311 314 316 318 319 320 321 321 321 321 321 321 320 320 321 321 320 319 319 319 319 319 319 320 320 321 321 321 321 322 324 324 324 324 324 325 325 325 326 328 330 331 331 331 330 329 329 329 333 336 339 339 339 340 340 341 340 338 340 344 343 344 345 346 345 346 347 346 348 350 351 352 352 352 352 352 352 351 353
303 306 305 305 305 306 307 309 312 314 315 317 317 318 318 318 318 318 318 317 318 318 318 316 316 316 316 317 317 317 317 318 318 318 318 319 321 321 322 321 322 322 323 323 323 324 326 327 328 327 327 327 326 325 326 328 331 334 336 336 336 336 335 342 343 343 343 343 343 343 345 346 343 346 347 349 350 351 351 352 352 352 351 351 352
305 304 304 304 304 306 306 305 306 308 311 313 314 315 316 316 316 316 315 315 316 316 316 316 314 314 314 314 314 315 315 316 316 316 316 317 318 318 319 319 319 319 320 320 321 322 323 324 324 324 323 323 323 322 322 323 325 326 328 328 328 329 329 329 340 341 341 341 342 343 343 343 343 344 347 348 349 350 351 351 352 352 351 351 351
303 304 304 304 305 303 304 304 304 304 306 308 310 311 312 313 313 313 313 313 312 313 313 313 312 311 311 310 310 311 311 312 313 313 314 314 315 316 316 317 317 318 318 318 319 319 320 320 320 320 320 320 319 319 319 319 322 322 323 322 322 322 323 323 335 339 338 341 343 343 342 343 341 344 346 349 349 349 349 350 351 351 351 351 351
304 303 302 302 303 303 303 304 304 304 305 305 305 307 309 310 311 310 311 310 310 310 309 310 309 309 308 307 307 307 307 308 309 310 311 311 312 312 313 315 315 316 316 316 317 318 318 318 318 318 318 317 317 316 315 317 317 318 318 319 319 319 320 321 332 337 339 338 341 341 341 337 341 342 345 346 348 348 348 348 349 351 351 350 352
302 301 302 302 301 302 302 303 304 304 304 304 305 304 305 306 308 308 308 308 308 307 306 306 306 306 305 304 305 304 304 305 305 306 307 307 308 308 310 312 313 314 314 314 316 316 316 316 316 316 316 316 315 314 314 315 315 315 316 316 315 315 316 325 336 339 339 339 340 340 340 338 342 342 343 347 346 346 346 347 347 348 350 350 351
301 301 300 302 302 302 302 302 302 303 303 303 304 304 302 303 304 305 306 305 305 305 304 304 303 303 303 303 303 304 304 305 304 305 304 305 304 305 306 309 310 310 311 311 313 313 314 315 315 315 315 314 313 312 312 312 313 313 313 313 314 313 325 330 332 335 337 337 338 339 336 338 341 343 344 344 345 345 345 346 347 347 348 349 349
300 301 300 300 302 301 301 301 302 302 302 302 303 303 302 302 302 302 302 303 303 302 302 302 302 302 302 303 305 304 304 305 304 304 304 303 302 302 304 306 307 307 308 308 309 310 311 312 312 313 313 312 310 310 310 310 311 311 311 311 311 316 320 322 324 325 330 335 337 339 335 338 340 342 345 345 343 344 345 345 346 346 346 347 348
298 298 299 300 299 301 301 301 301 302 302 302 303 303 303 301 303 303 303 302 301 301 301 302 302 303 303 303 303 302 303 303 302 302 303 303 303 301 302 304 305 305 305 306 306 308 309 309 310 310 310 310 308 310 310 311 310 310 310 310 314 314 315 317 318 321 325 329 332 334 334 336 338 341 343 342 342 343 344 345 345 345 346 347 347
297 298 298 298 300 300 300 300 301 301 302 302 303 302 302 302 302 302 302 301 301 301 301 301 301 302 302 302 301 301 302 302 301 301 301 301 302 301 302 303 303 303 303 305 305 306 307 307 308 308 308 307 308 309 308 309 310 308 309 311 311 312 314 314 315 318 321 325 329 328 332 334 336 339 341 341 342 342 342 344 344 345 345 346 346
297 298 298 299 299 299 301 301 301 301 302 301 302 301 301 302 302 302 302 302 302 301 301 301 301 301 302 301 301 301 302 302 303 302 303 303 303 303 301 301 302 302 302 303 303 304 305 306 306 306 307 308 308 307 307 307 308 308 309 309 309 310 312 312 313 314 316 320 324 326 330 332 334 336 338 340 341 342 342 343 344 344 344 345 346
298 299 298 297 298 299 299 300 301 301 301 300 301 301 301 301 301 301 302 301 301 301 301 301 301 301 301 301 301 301 301 301 302 302 302 302 303 303 303 302 302 303 301 303 303 303 304 305 305 305 306 306 306 306 307 306 307 307 307 307 308 309 310 310 311 313 314 315 319 323 327 328 331 334 337 338 340 341 342 343 343 344 344 344 345
298 296 297 297 298 298 300 299 300 300 301 301 301 299 301 300 301 301 301 301 302 301 301 301 300 300 300 300 300 300 300 300 301 301 301 301 301 300 301 301 301 302 301 301 301 302 302 303 303 304 304 304 305 306 306 306 306 306 306 307 308 308 309 309 309 310 312 313 314 318 322 324 325 326 330 335 338 340 341 342 343 344 344 344 345
296 297 297 296 297 297 299 300 299 300 300 300 300 300 300 300 301 300 302 300 301 301 300 300 300 300 300 299 299 299 299 299 299 299 299 300 299 299 299 300 300 300 300 300 301 301 301 301 302 302 303 304 304 305 305 306 306 306 306 307 307 307 308 308 308 309 310 310 312 314 316 318 319 321 324 328 332 337 340 340 341 342 343 344 344
297 297 297 296 297 297 297 298 299 299 299 299 299 299 299 300 300 299 301 298 300 299 299 299 300 299 299 298 298 299 298 298 298 298 298 299 298 299 299 298 299 299 299 299 299 299 299 300 301 302 302 303 303 304 304 305 305 305 305 306 307 307 307 307 308 308 309 310 309 310 312 315 316 317 320 323 326 330 337 340 340 342 342 344 344
297 296 297 296 297 297 296 296 298 297 298 298 298 298 298 299 299 299 298 298 299 299 299 299 299 298 298 298 298 298 298 297 297 297 298 298 298 298 297 297 298 298 298 297 298 297 298 298 299 299 300 301 301 302 303 303 304 304 304 305 305 306 306 307 307 307 308 308 309 308 310 312 311 313 316 320 324 326 331 337 339 340 341 342 343
297 296 296 296 297 297 296 296 297 297 298 298 298 298 298 298 298 298 298 298 298 298 298 298 298 297 297 297 297 297 297 296 296 296 296 296 296 297 297 296 296 297 296 296 297 296 296 297 298 298 299 299 300 301 301 302 303 304 304 304 305 305 305 305 306 306 307 307 308 308 308 310 311 312 313 315 319 322 324 327 334 339 340 341 341
296 296 296 297 297 296 296 296 297 299 298 297 298 297 297 297 298 298 298 298 298 298 298 298 297 297 296 296 297 296 296 296 295 295 295 295 296 296 295 296 295 296 295 295 296 296 296 296 297 296 297 298 298 300 300 301 302 302 303 303 304 305 305 305 305 306 306 307 307 307 308 308 310 310 311 313 315 318 321 324 328 332 339 340 341
296 296 296 297 296 296 296 296 296 297 297 297 297 297 297 297 297 297 297 297 297 297 297 297 296 296 296 296 296 295 296 295 295 295 295 295 294 294 295 295 294 295 295 295 294 295 296 296 297 297 297 298 298 298 300 299 300 301 302 302 303 303 304 304 304 305 305 306 306 307 307 308 308 310 310 311 314 315 318 321 324 326 334 339 340
296 297 296 297 295 296 295 295 295 297 296 295 296 296 296 296 297 297 297 297 297 297 296 296 296 296 296 296 295 295 295 295 294 294 294 294 294 294 294 294 294 294 294 294 294 295 295 295 296 296 296 297 297 297 299 299 299 299 300 301 302 302 303 304 304 304 304 305 305 305 306 307 307 307 309 310 311 313 315 318 320 323 325 329 334
296 296 296 295 295 297 297 296 296 296 296 295 295 295 295 296 296 296 295 296 296 296 295 296 295 295 296 295 295 294 294 294 294 294 294 293 293 293 293 293 293 293 293 294 293 294 294 294 294 294 295 295 295 296 296 296 297 298 299 300 301 301 302 303 303 303 304 304 305 306 305 305 306 307 307 308 310 311 312 314 317 320 324 325 331
296 296 295 295 295 296 296 294 296 296 295 295 295 295 295 295 295 295 295 296 296 295 295 295 295 295 295 294 294 294 293 293 293 293 292 292 292 292 292 292 292 292 292 293 292 293 293 293 293 293 294 294 294 295 295 295 295 295 297 299 299 300 301 301 303 303 303 304 304 305 305 305 305 306 307 307 305 307 311 314 315 318 319 323 325
295 295 295 296 294 295 295 295 295 295 295 295 295 295 294 294 295 295 295 295 295 295 294 295 295 294 294 294 294 293 293 293 293 292 292 292 291 291 291 292 292 291 292 292 292 292 292 292 293 293 292 292 293 293 294 294 295 295 296 296 297 299 299 300 301 302 303 303 303 303 304 304 305 305 305 305 306 305 306 309 310 312 315 320 324
295 295 295 295 294 294 294 295 294 294 294 293 294 294 294 294 293 294 293 294 294 294 294 294 294 294 293 293 293 293 292 292 292 292 291 291 291 291 291 291 291 291 291 291 291 292 291 292 292 293 293 291 292 293 293 294 294 294 295 296 296 297 298 299 300 301 302 302 302 303 303 303 304 303 304 304 305 306 305 307 310 312 313 314 316
295 295 295 294 293 294 294 294 294 294 293 293 293 294 293 293 293 293 293 293 293 293 293 293 293 293 293 292 293 292 292 292 291 291 291 291 291 291 291 291 290 290 290 291 290 291 292 291 291 292 292 291 291 292 292 292 293 293 294 295 296 296 297 299 300 300 300 300 301 301 302 303 303 303 304 305 305 305 306 306 307 308 309 312 316
294 294 294 294 294 294 294 294 293 293 293 293 294 294 293 293 293 293 293 292 293 292 292 292 292 292 292 292 292 292 291 291 291 291 290 290 290 290 290 290 290 290 290 290 290 291 291 291 290 290 292 291 290 291 291 292 292 293 293 294 295 296 297 298 299 299 300 301 301 301 302 302 303 303 303 304 304 305 305 306 306 307 308 310 317
293 292 293 293 293 293 293 293 292 292 292 292 293 293 292 292 292 292 292 292 292 291 292 291 292 291 292 291 291 291 291 290 290 290 290 290 289 290 290 290 290 289 289 289 289 290 289 289 290 289 289 290 291 291 291 291 291 292 292 294 296 297 297 298 298 299 300 300 300 301 301 302 302 303 303 304 304 305 304 305 305 306 307 308 311
291 291 292 292 293 292 293 292 292 292 292 291 292 292 292 292 291 291 291 292 291 292 291 292 291 291 291 291 291 290 291 290 290 290 289 289 289 289 289 289 290 289 289 289 289 289 289 289 288 289 288 288 289 291 291 291 289 290 294 294 294 295 295 296 297 298 299 299 300 300 301 301 302 302 303 304 304 304 304 304 305 305 306 308 308
290 290 291 291 292 292 292 292 292 291 292 292 292 292 293 292 292 292 291 291 290 290 290 291 291 291 290 290 290 290 290 289 289 289 288 288 288 288 289 289 289 289 289 289 289 288 288 288 288 287 289 287 287 290 290 290 289 289 287 288 290 294 296 296 297 298 299 300 300 300 301 301 301 302 303 303 303 304 304 305 306 306 307 309 309
290 289 291 291 291 291 292 292 292 291 292 292 292 292 291 291 291 290 290 290 290 290 290 290 290 290 290 290 290 290 289 289 289 289 288 288 288 288 288 288 288 288 288 288 288 288 288 288 287 286 286 288 288 290 290 291 287 288 288 287 287 286 291 294 297 299 299 299 298 297 298 298 299 301 302 302 302 303 305 306 306 307 308 309 311
289 288 289 290 290 291 292 292 291 292 292 291 291 292 291 291 290 290 290 289 289 289 290 289 289 289 289 290 290 289 289 288 288 288 288 288 287 287 287 288 288 288 288 287 287 287 288 287 287 286 286 284 286 287 290 289 289 287 284 286 285 286 284 290 291 292 294 294 295 295 297 298 299 301 301 300 301 303 304 304 305 306 310 311 312
288 288 289 289 289 290 292 292 291 291 291 291 291 291 290 289 289 289 288 288 288 288 288 288 289 289 288 289 289 289 288 288 288 287 287 287 287 287 287 287 287 287 287 287 287 287 287 287 286 286 286 284 284 286 287 289 289 290 288 285 285 284 285 287 288 288 293 293 295 296 296 296 297 297 298 299 301 301 301 302 302 303 304 304 304
288 288 289 289 289 290 291 291 291 291 290 290 291 290 289 289 288 287 286 287 287 287 287 288 288 288 288 289 288 288 288 287 287 287 287 287 286 287 287 287 287 287 287 287 286 286 286 286 286 286 285 285 284 284 284 288 288 289 289 288 287 283 283 286 285 283 290 292 292 294 295 296 297 297 298 299 300 301 301 301 302 303 304 305 306
288 289 288 289 289 291 291 290 290 290 290 290 290 290 289 289 288 288 288 288 287 288 289 288 287 287 287 287 287 288 288 287 287 286 286 286 286 286 286 286 286 286 286 286 286 286 286 286 286 285 285 285 285 283 284 285 287 287 288 287 287 287 287 284 282 284 282 287 291 291 292 294 295 295 295 296 297 298 300 300 300 301 301 302 303
288 288 288 288 288 289 289 289 290 290 290 290 289 289 288 288 288 287 287 287 287 287 288 287 287 286 286 286 287 286 287 286 286 286 286 286 285 285 286 286 286 286 285 285 285 285 286 286 286 285 285 285 284 283 283 285 283 284 287 286 286 287 287 287 287 284 283 281 283 289 292 292 293 294 294 295 296 296 297 298 299 300 301 303 304
287 287 288 288 288 288 288 289 289 289 289 289 288 288 288 288 288 287 286 287 287 287 287 286 286 286 285 285 285 286 286 286 286 285 285 285 285 285 285 285 285 285 285 285 285 285 285 284 284 284 284 284 284 284 283 283 284 284 284 285 285 285 286 286 287 287 284 282 282 284 285 290 291 291 293 294 294 296 297 298 299 300 300 301 301
287 288 288 288 287 288 287 287 287 288 288 287 287 287 287 287 286 286 286 286 286 286 286 285 285 285 284 285 285 285 285 285 285 285 285 285 284 285 284 284 284 284 284 284 284 284 284 284 284 284 284 283 284 284 283 283 284 284 284 284 283 283 284 284 284 284 284 284 281 282 284 284 284 287 291 292 293 294 295 296 297 298 298 300 301
286 287 287 287 287 287 287 286 287 287 286 286 286 286 286 286 286 286 286 285 286 285 284 284 284 284 283 284 284 284 284 284 284 284 284 284 284 284 284 284 284 284 283 284 283 283 284 284 284 284 283 283 283 283 283 283 283 283 283 283 283 283 282 282 282 283 283 282 282 282 283 284 284 284 288 291 291 292 293 294 295 296 298 300 301
Wind_Speed
8 8 7 10 14 13 14 14 14 14 14 14 15 15 14 13 12 9 9 8 7 7 6 7 7 8 10 11 12 12 11 11 10 10 10 10 10 9 9 8 8 8 7 5 5 4 4 3 3 1 1 3 3 4 5 3 4 6 7 9 9 9 9 9 10 9 10 11 12 13 14 14 14 13 13 12 11 9 7 7 8 8 9 11 9
8 7 6 8 12 12 12 13 14 14 14 15 16 16 15 15 14 14 13 12 11 10 10 10 9 10 10 11 11 11 11 11 11 11 10 10 10 9 9 8 7 7 9 9 8 6 5 5 5 5 4 1 2 2 4 4 4 5 6 7 8 9 9 9 9 9 10 11 10 11 11 13 15 14 13 11 11 10 7 8 9 9 9 9 12
4 5 5 7 10 10 11 11 12 13 13 14 14 14 15 16 16 15 15 14 15 14 14 13 13 13 13 13 13 13 13 13 13 12 12 12 11 11 10 10 9 9 9 9 9 10 10 9 7 5 5 3 1 2 4 5 5 5 5 7 8 9 9 8 8 8 10 11 11 11 11 11 14 16 13 12 11 11 8 9 9 11 9 9 10
4 4 5 6 7 12 11 11 12 12 12 13 13 13 13 14 14 14 14 15 15 15 15 14 14 14 14 13 14 14 14 14 15 15 14 14 14 13 12 11 10 9 9 10 10 10 11 10 10 8 5 3 3 3 5 5 5 6 6 7 8 9 9 8 8 8 9 10 10 10 8 8 9 11 13 12 12 12 9 10 11 11 13 10 12
4 4 5 5 8 11 11 11 11 12 12 12 13 13 13 13 14 14 15 15 14 14 13 13 13 14 14 14 14 14 15 14 15 15 15 15 15 15 15 13 11 10 9 10 10 10 10 10 10 10 8 1 2 4 5 5 6 6 7 8 8 9 10 9 8 8 8 8 9 10 8 8 8 5 9 10 10 11 9 9 10 13 13 12 13
3 4 4 5 7 9 11 11 11 12 12 12 13 13 13 13 13 14 14 13 13 13 13 13 14 14 14 14 15 15 14 14 15 15 16 15 15 15 14 13 14 12 11 9 9 9 9 11 11 10 10 10 3 2 2 4 7 6 6 7 9 10 10 10 9 9 8 8 10 7 7 8 8 6 7 9 10 10 9 7 9 12 12 13 14
3 3 5 5 5 9 10 11 11 12 12 12 13 13 14 14 14 14 14 14 14 14 14 14 14 15 15 14 14 14 14 15 15 15 15 15 14 13 13 13 12 12 12 11 10 11 11 10 10 10 10 10 10 8 6 5 4 6 5 6 8 9 11 10 11 10 9 8 6 6 6 7 8 6 6 8 10 11 11 9 10 11 15 15 14
3 3 4 5 7 9 10 11 11 12 12 13 13 14 14 14 15 15 15 15 15 15 15 15 15 15 15 15 14 15 15 15 15 15 14 14 14 13 13 13 13 12 12 11 11 10 10 10 10 10 9 9 10 11 12 10 8 6 7 7 6 8 9 10 9 11 10 9 7 5 6 7 8 7 7 9 11 13 13 13 9 12 15 14 12
4 4 4 5 8 11 10 10 11 12 13 13 14 14 15 15 15 15 16 16 16 16 16 16 16 16 16 15 15 15 14 14 15 15 15 14 14 14 14 14 14 13 13 13 13 12 12 11 11 11 10 9 9 10 11 11 10 9 7 7 7 8 8 7 8 10 10 7 7 6 6 7 7 8 7 8 11 13 15 13 11 12 14 13 9
4 4 5 6 7 10 10 11 12 12 13 14 14 14 15 15 15 16 16 16 17 17 17 17 17 17 17 16 16 15 15 15 15 16 15 15 15 15 15 15 15 14 14 13 14 14 14 14 12 11 11 10 11 11 10 10 11 11 9 8 8 9 7 6 7 9 8 8 8 8 7 5 8 8 10 11 12 13 13 11 10 12 9 8 9
4 4 5 6 9 10 11 11 12 12 13 13 14 14 14 15 15 16 16 16 16 17 17 17 17 17 17 16 16 16 16 16 16 16 16 16 16 16 16 16 15 15 15 15 14 14 14 15 15 14 13 13 11 10 10 10 9 10 11 10 9 8 8 7 7 7 7 8 9 8 9 4 7 7 8 10 12 13 12 12 10 10 11 8 11
5 5 5 5 8 12 11 12 12 13 13 13 14 14 14 15 15 15 16 16 16 16 17 17 17 16 16 16 15 15 15 15 15 15 15 15 15 15 15 16 16 16 16 16 15 14 14 14 14 14 14 13 13 12 12 11 10 9 10 11 10 9 6 7 7 8 8 9 9 8 9 10 10 9 6 9 12 14 13 13 10 12 14 13 15
5 5 4 4 6 11 12 12 12 12 13 13 13 14 14 14 15 15 15 15 16 16 16 16 16 16 16 16 16 15 15 15 15 15 15 15 15 15 15 15 15 15 16 16 16 15 15 15 15 15 15 15 14 14 13 13 13 12 11 10 11 10 8 7 9 9 8 8 8 9 9 8 9 8 9 12 13 15 16 16 15 14 14 15 17
5 5 4 5 6 9 12 11 12 12 13 13 13 14 14 14 14 15 15 15 15 15 15 16 15 15 15 15 15 15 15 16 16 16 16 15 16 16 15 15 15 15 15 15 15 15 16 16 16 15 15 15 15 15 15 15 14 13 13 12 11 11 10 8 10 9 8 8 8 8 9 8 9 6 9 13 14 15 17 17 17 16 15 16 18
6 5 4 4 5 6 10 11 11 12 12 13 13 13 14 14 14 14 15 15 15 15 15 15 15 15 15 15 15 15 15 15 16 16 16 16 16 16 16 16 16 16 16 15 15 15 15 16 16 16 16 16 16 16 16 16 15 15 14 14 13 12 9 8 8 8 8 8 8 8 8 8 8 8 10 14 16 16 17 17 17 17 15 16 17
5 4 4 4 4 5 5 8 10 11 11 12 12 13 13 13 13 14 14 14 14 14 15 15 15 15 15 15 15 15 15 16 16 16 16 16 16 16 16 16 16 16 16 16 16 15 15 15 15 15 16 16 16 16 16 16 16 15 15 14 14 13 12 8 7 8 9 9 8 9 8 8 7 10 12 14 16 17 17 18 17 17 17 17 18
4 3 5 5 4 4 5 6 7 9 10 12 12 12 12 12 13 13 13 14 14 14 14 14 14 14 14 15 14 14 14 15 15 16 16 16 16 17 17 16 16 16 16 16 16 15 15 15 14 14 14 14 15 16 16 16 15 15 15 15 15 13 12 10 7 8 8 9 8 9 9 9 6 5 10 13 16 17 16 17 17 17 16 15 17
4 4 5 5 5 5 5 5 5 6 6 7 11 12 11 12 12 12 13 13 14 14 14 14 14 13 14 13 13 12 13 13 14 14 15 15 15 15 16 16 16 16 16 16 16 16 15 15 15 14 13 13 12 13 13 14 15 15 14 15 15 15 13 11 7 8 9 9 9 9 9 10 5 9 11 13 15 17 17 17 17 17 17 15 14
4 4 4 5 5 5 5 5 5 5 5 4 5 8 11 11 11 11 12 13 13 14 14 13 13 13 12 11 10 9 10 11 11 12 13 14 14 14 16 15 15 15 15 15 15 15 15 15 15 15 14 14 13 12 11 10 11 13 14 14 14 14 15 10 7 7 9 8 9 9 9 6 6 11 13 14 15 16 18 18 17 16 16 15 13
4 4 5 4 4 4 4 4 4 5 4 4 5 6 8 9 10 11 12 12 13 12 12 12 11 12 10 10 7 7 8 7 10 8 11 11 13 12 13 13 14 15 15 15 15 15 15 15 14 14 14 14 14 14 10 9 10 10 10 12 12 14 8 6 9 9 8 9 9 9 9 6 10 13 15 16 17 17 17 19 19 17 16 16 15
3 4 4 5 4 4 4 4 4 5 4 4 4 4 5 4 6 8 9 11 10 10 10 9 8 9 8 8 5 8 7 7 8 9 9 9 11 12 12 12 11 12 12 12 13 14 14 14 14 14 14 14 15 14 9 8 9 9 10 9 11 7 6 7 8 8 8 8 8 9 9 6 10 14 16 17 18 19 19 19 19 19 18 17 16
7 6 4 5 5 4 4 5 5 4 4 3 2 2 2 3 3 4 5 6 7 7 7 7 7 6 7 6 6 6 5 6 7 9 6 8 8 11 12 11 11 11 12 10 10 10 12 12 13 14 14 13 13 7 7 8 9 7 8 9 7 5 6 7 7 8 9 8 9 8 7 10 13 15 17 19 20 20 21 20 20 19 18 17 15
7 6 6 6 4 5 4 5 4 4 5 4 2 3 2 2 3 3 3 4 5 6 6 6 6 5 5 4 4 5 5 3 5 5 6 7 5 8 10 10 10 10 13 11 9 9 11 10 10 11 12 11 7 6 6 6 7 9 8 6 5 5 6 7 8 7 8 8 8 9 7 10 14 15 17 19 20 21 21 21 21 20 19 18 16
9 7 7 5 5 5 5 4 4 3 3 3 2 2 2 2 2 1 2 2 3 4 5 5 4 5 4 4 3 4 3 3 3 2 5 4 5 6 7 8 8 8 13 7 8 8 12 8 9 10 7 5 6 6 6 6 7 7 7 6 6 7 7 7 7 7 8 9 9 10 9 12 14 16 18 19 20 21 22 23 23 22 20 19 17
8 7 6 7 6 5 5 4 3 3 3 3 2 2 2 2 2 1 1 2 2 3 3 4 4 4 4 3 3 3 2 3 4 4 4 5 5 5 5 6 6 6 9 6 6 7 7 7 6 7 6 6 6 6 6 7 7 7 7 7 7 7 7 7 7 8 8 9 9 8 8 11 14 16 18 19 20 21 22 22 23 23 21 20 19
8 8 9 8 7 6 5 5 4 3 2 2 2 3 1 2 1 1 1 1 2 2 2 3 3 4 4 3 2 3 3 3 4 5 5 5 5 6 5 6 6 6 6 6 6 6 6 6 7 7 6 6 6 7 7 7 7 7 7 7 8 7 7 7 8 8 8 9 10 10 8 10 15 17 18 19 20 20 21 22 23 24 23 22 21
9 9 9 8 8 7 6 5 5 4 3 1 2 2 2 1 1 1 0 1 1 2 3 3 3 4 3 4 3 4 4 4 5 5 6 6 6 6 6 6 7 6 7 6 7 6 6 6 6 6 7 7 7 7 7 8 8 8 8 8 8 8 8 8 8 8 8 9 10 12 11 12 16 18 19 20 20 21 21 22 22 24 24 24 22
9 10 9 9 8 9 8 7 6 6 5 4 3 3 2 2 2 1 0 2 1 2 2 3 3 4 5 4 4 3 4 4 5 5 5 5 5 6 6 6 6 6 6 6 7 7 7 6 6 7 7 7 7 8 7 7 8 8 8 8 9 9 8 8 8 9 9 9 10 12 12 12 14 17 19 21 22 22 22 22 23 24 25 24 24
11 11 9 9 10 8 9 8 7 7 5 5 4 3 3 3 2 1 1 0 1 2 2 2 3 3 5 5 5 4 4 4 5 5 4 4 5 5 5 5 5 5 6 6 6 6 6 6 6 7 7 7 7 7 7 8 7 8 8 9 9 9 9 9 9 9 9 9 9 11 12 14 17 19 20 20 22 23 23 23 24 26 25 25 25
12 11 10 9 9 9 9 9 8 7 6 6 5 4 4 4 3 2 2 1 2 2 2 3 3 3 4 5 5 4 4 4 4 4 4 4 4 5 5 5 5 5 6 6 6 6 6 6 6 6 7 7 7 7 7 8 8 8 8 9 9 9 9 9 9 9 9 9 10 11 13 13 15 19 21 22 23 23 24 24 24 25 26 26 26
11 12 11 9 9 9 8 8 7 7 6 6 5 5 4 4 3 3 2 2 2 2 2 3 3 3 4 4 4 4 3 3 3 4 4 4 4 4 5 5 5 5 5 6 6 6 6 6 6 7 7 7 7 7 7 8 8 8 8 9 9 9 9 10 10 10 10 10 10 10 12 14 15 17 19 21 22 23 23 24 24 25 25 26 26
13 13 11 9 9 11 10 9 8 8 7 7 5 5 4 4 3 3 2 2 1 2 3 3 3 3 3 3 2 3 2 2 3 3 4 4 4 5 5 5 5 5 5 6 7 7 7 7 7 7 8 7 8 8 8 8 8 8 8 10 10 9 9 9 10 11 11 11 11 11 11 11 14 15 17 20 22 23 24 24 24 25 25 25 26
9 12 11 11 12 11 9 9 8 8 8 7 5 4 4 3 3 2 2 1 2 2 2 2 2 2 2 2 2 2 2 2 3 4 4 4 4 4 4 5 5 5 6 7 8 7 6 6 7 7 7 7 8 8 8 8 9 9 9 9 9 10 10 9 10 11 11 11 11 11 11 11 12 14 16 17 20 22 23 24 25 25 26 26 26
11 10 11 13 10 6 6 6 7 8 7 5 5 4 4 3 2 2 2 1 2 2 2 2 2 1 1 1 1 2 3 3 4 4 4 4 4 4 5 5 5 6 6 6 6 6 6 7 7 7 7 8 8 8 8 9 8 9 9 10 9 10 10 10 10 11 11 11 11 11 11 11 11 11 11 15 17 19 23 24 24 25 25 26 26
10 11 14 14 11 8 6 5 7 7 6 5 5 4 3 3 3 2 2 1 2 2 2 2 1 1 0 1 1 2 3 4 4 4 4 4 4 4 4 4 5 7 6 5 6 6 6 7 7 8 8 7 8 8 9 9 10 10 10 9 10 10 11 11 11 11 11 11 11 11 12 11 12 11 11 11 13 16 17 19 22 24 26 27 27
14 12 11 11 11 9 8 6 7 7 6 6 5 5 4 3 3 2 3 2 2 2 2 1 1 1 0 1 0 2 3 4 4 4 5 4 5 5 4 4 6 5 5 6 5 6 5 6 6 7 8 8 9 9 8 10 10 10 10 10 10 11 11 11 11 11 11 11 11 12 11 12 12 11 12 12 12 14 17 18 22 25 25 26 27
13 12 13 11 10 9 9 8 9 8 7 7 6 5 4 4 4 4 3 3 2 2 2 1 1 1 0 1 1 2 3 3 4 4 5 5 5 5 5 5 5 5 6 5 6 5 5 5 6 6 7 8 9 10 9 9 10 11 10 11 11 11 11 11 11 11 11 12 13 13 13 13 13 14 13 12 12 12 15 17 18 21 23 26 29
11 13 12 13 12 10 9 9 8 8 7 7 7 6 5 4 4 3 3 2 2 1 1 1 2 1 0 1 1 3 3 3 4 4 5 5 5 6 6 6 6 6 6 6 6 5 5 5 7 6 7 8 8 9 11 10 10 10 11 12 12 11 11 12 12 12 12 13 13 13 13 12 12 12 12 12 12 12 13 15 18 21 22 23 26
10 13 11 11 9 9 8 8 8 8 7 6 6 5 4 3 3 3 3 2 3 2 1 2 1 1 1 1 2 3 3 4 4 5 5 5 5 6 6 6 6 6 6 6 6 5 5 6 7 8 7 7 9 10 10 11 11 11 12 14 13 14 12 12 12 12 12 13 13 13 12 12 12 12 12 12 12 12 13 13 12 13 14 18 21
10 11 12 11 10 10 8 8 9 9 8 7 6 5 4 4 4 4 3 3 3 2 2 1 1 1 1 2 3 3 4 4 5 5 5 5 5 6 7 7 6 6 6 6 5 5 6 7 8 8 10 8 8 8 9 10 12 14 15 13 12 13 14 13 14 14 13 13 13 11 11 11 11 11 12 12 12 13 12 13 12 13 14 17 21
12 12 13 13 13 12 11 11 9 9 8 8 7 7 6 5 3 3 3 3 2 1 2 1 1 2 2 3 4 4 4 5 5 5 5 5 6 6 7 7 7 7 6 6 6 7 6 7 7 7 9 9 8 7 8 9 12 13 10 13 13 13 16 16 15 14 14 12 10 11 10 11 11 11 11 11 12 13 13 13 13 13 14 13 15
14 13 14 15 13 13 13 11 9 9 8 8 7 6 5 4 4 3 3 2 1 1 1 2 2 2 3 4 5 5 5 5 5 5 5 6 6 6 7 7 7 7 6 7 7 7 7 6 6 7 6 7 8 7 7 8 8 10 16 16 12 9 10 12 13 13 12 10 10 9 10 11 12 11 10 11 12 13 13 13 12 13 13 14 14
15 15 14 14 13 12 12 11 10 9 8 7 6 5 4 3 2 2 1 1 0 1 1 2 2 3 4 5 5 5 5 5 5 5 5 6 7 7 7 7 8 7 6 6 6 6 5 6 6 7 8 6 8 6 6 5 9 11 12 13 14 17 9 5 7 5 5 7 9 13 13 13 14 12 11 12 12 12 12 12 13 13 14 14 14
13 14 15 16 11 11 12 12 10 9 8 7 6 5 5 4 3 2 2 0 1 0 2 4 4 5 6 6 5 5 5 5 5 6 6 6 7 7 7 8 8 7 6 6 6 6 5 5 6 7 7 10 7 7 5 6 6 9 10 6 14 11 17 5 9 14 11 16 15 13 11 11 12 11 11 12 12 11 12 12 14 15 14 14 13
15 16 15 14 9 14 13 12 10 10 8 8 8 6 6 5 3 3 1 1 2 3 3 4 5 5 5 5 5 4 5 6 6 6 6 7 7 7 7 8 8 7 6 6 6 5 6 6 6 7 7 8 11 8 8 7 7 6 7 10 9 8 10 15 17 20 2 5 6 10 11 14 14 13 12 13 13 13 13 14 14 14 16 16 16
16 16 14 13 12 12 12 11 9 9 8 9 9 7 6 5 5 4 4 4 4 4 5 5 3 3 3 2 4 5 6 6 6 6 7 7 7 7 8 8 8 7 6 6 6 6 6 6 6 6 8 8 9 10 9 7 7 8 9 9 9 11 15 16 12 16 14 10 12 9 10 11 11 12 12 13 14 14 13 13 13 14 14 15 15
16 13 13 13 14 11 11 11 10 9 8 9 9 7 6 5 6 5 4 4 4 3 2 2 3 3 3 5 5 5 5 6 6 6 6 7 7 7 8 8 8 7 6 6 6 6 6 6 6 6 7 7 8 10 11 8 7 8 9 11 12 12 13 13 13 13 18 16 7 9 11 10 12 14 15 16 16 16 15 15 16 17 17 16 16
14 13 13 12 15 13 13 12 9 9 8 9 10 8 7 6 6 5 4 5 5 4 3 3 3 4 5 5 5 5 5 6 6 7 7 7 7 8 9 9 9 8 6 6 6 6 6 7 7 8 8 8 9 10 11 8 8 9 6 8 10 12 13 15 16 14 15 18 24 13 9 11 11 12 14 15 16 17 17 17 17 17 16 16 15
13 15 14 12 11 11 11 11 10 10 9 10 10 8 7 7 7 6 6 5 5 5 4 4 4 4 6 6 6 6 6 6 6 7 7 7 8 9 9 9 8 8 6 7 7 7 9 9 9 9 9 9 9 10 10 10 9 10 8 10 10 10 11 12 13 13 13 15 20 19 19 11 12 15 13 14 14 15 16 16 16 16 16 16 16
12 13 12 10 11 10 11 13 13 10 10 11 9 10 9 7 8 7 8 7 5 5 4 5 5 5 6 6 6 6 5 5 6 6 7 8 8 9 8 9 9 8 7 7 8 9 10 10 10 10 10 11 10 10 11 11 10 10 10 10 10 9 11 11 11 12 14 15 17 20 21 19 18 14 12 13 15 15 16 16 18 18 18 18 17
12 13 12 13 12 11 13 14 13 10 11 11 11 11 9 9 8 9 9 9 8 6 5 6 5 5 6 6 5 5 5 6 6 6 7 8 8 8 8 8 8 7 7 8 8 8 9 9 9 11 12 13 11 12 12 13 12 12 12 11 12 11 11 11 10 10 12 12 13 17 19 21 18 20 17 15 14 16 16 16 18 18 18 18 17
Wind_Direction
37 354 341 342 339 358 22 29 35 39 44 45 45 47 51 51 50 50 45 47 41 29 21 13 8 7 4 4 358 353 352 351 351 349 342 339 339 345 354 353 346 339 329 336 344 343 341 340 338 5 57 349 341 337 340 341 323 321 323 325 322 322 323 322 324 324 322 323 320 309 293 285 279 273 278 276 273 263 234 218 217 222 228 219 223
331 335 343 347 337 10 29 35 40 44 45 45 45 45 47 50 55 57 60 61 56 55 51 45 45 39 34 30 25 20 12 8 3 1 358 356 359 357 354 350 358 357 341 333 326 331 326 331 340 335 334 74 343 304 311 312 313 307 307 307 309 312 315 318 319 320 320 319 316 309 296 288 283 277 269 271 271 264 235 221 217 236 226 222 217
308 323 340 352 332 17 34 41 45 48 50 53 54 50 49 49 50 55 58 63 63 62 60 61 58 56 53 47 44 40 39 36 31 25 24 24 17 7 3 357 354 354 349 342 341 341 332 331 331 336 339 352 188 253 257 287 289 292 292 296 302 303 308 309 310 314 317 317 318 312 293 272 271 268 267 264 264 263 240 225 219 228 246 228 205
337 344 340 2 21 28 36 41 48 51 53 55 56 57 59 56 55 55 57 55 59 60 61 61 59 55 53 51 48 45 41 41 40 39 37 36 35 30 24 12 359 354 350 339 340 340 337 338 337 326 333 301 266 236 251 252 272 278 287 290 297 301 302 303 300 303 311 314 314 315 299 283 256 231 248 258 260 263 245 221 220 221 242 244 228
353 346 360 17 30 35 30 42 47 50 52 56 56 57 59 58 59 60 57 54 54 58 58 56 56 54 49 46 47 46 44 43 43 43 41 41 43 42 38 32 24 17 4 351 336 346 329 332 335 331 327 331 268 284 274 258 249 261 277 294 295 294 296 298 298 299 302 307 312 300 291 283 283 228 224 249 258 264 261 229 220 229 231 236 238
357 6 14 24 36 37 29 40 45 49 51 52 54 55 56 58 59 59 60 59 57 55 55 54 55 54 50 45 44 44 44 44 46 43 42 40 42 41 40 36 34 29 22 6 356 344 335 348 346 339 333 329 326 259 285 297 279 266 282 297 304 302 298 297 298 298 298 303 282 273 285 287 287 273 212 248 256 262 266 243 221 236 235 233 238
31 9 23 33 49 34 29 38 45 47 51 51 52 53 54 54 55 56 56 56 56 57 57 56 56 56 54 50 43 43 43 45 45 45 42 39 38 39 39 35 34 31 25 17 11 4 359 351 349 344 336 333 332 336 319 297 287 284 282 281 293 301 304 301 297 298 298 290 288 291 288 293 297 290 276 258 262 270 273 261 251 241 245 239 237
59 38 34 50 47 38 34 44 46 49 49 50 51 51 51 52 51 51 51 51 52 53 54 54 53 54 54 51 48 45 42 43 42 42 39 37 36 37 38 36 31 28 24 18 17 15 8 1 357 350 343 339 340 346 345 340 329 299 290 293 289 288 293 297 291 292 295 289 281 287 289 296 297 293 290 283 279 280 282 286 262 247 251 244 236
75 54 52 58 56 37 38 43 50 51 52 52 52 52 51 51 50 50 49 49 49 48 49 49 49 50 51 50 47 45 44 42 41 38 36 34 32 30 35 37 34 29 25 21 19 15 13 8 3 358 354 348 346 349 344 338 338 332 319 309 302 293 291 285 279 280 279 281 290 283 286 281 289 295 287 288 289 288 289 288 274 253 253 250 241
68 64 51 58 54 39 47 47 49 50 53 54 53 54 53 52 52 50 48 48 47 47 47 45 45 47 47 46 45 44 44 42 39 36 34 31 29 28 29 33 33 30 25 21 18 13 15 15 12 9 8 8 11 2 343 337 335 335 326 318 310 304 298 284 276 269 279 284 288 289 287 295 281 278 286 294 293 290 289 290 289 295 298 239 239
67 59 62 63 48 47 50 50 52 52 54 54 55 56 54 53 52 51 50 49 48 48 46 44 45 44 44 44 42 43 41 41 39 37 34 33 29 28 28 28 28 27 25 23 20 18 13 12 14 15 17 14 12 1 351 343 336 333 329 322 314 311 306 293 273 287 288 294 291 290 291 222 262 267 270 279 285 285 285 285 277 258 264 251 235
79 69 61 58 55 42 52 53 51 55 56 58 57 57 56 57 55 53 51 50 50 48 47 45 44 43 42 42 42 41 40 40 38 36 35 33 31 31 29 28 25 23 22 20 18 17 18 16 14 13 14 13 11 5 2 354 346 338 334 328 320 313 303 296 287 294 295 290 292 294 289 290 293 292 309 275 276 281 282 279 268 259 257 254 247
73 64 62 61 61 41 48 51 54 54 56 58 58 57 57 57 56 56 55 53 52 51 49 48 46 44 43 41 40 38 37 37 38 36 34 32 32 30 30 28 25 23 21 18 16 14 15 16 15 13 12 10 9 5 2 3 1 358 350 342 329 319 300 289 292 288 290 291 290 289 290 287 284 282 280 275 272 276 282 284 279 270 254 249 247
83 72 63 67 63 50 48 49 52 56 56 57 59 60 61 59 59 58 57 56 55 54 53 50 46 46 43 42 40 38 36 35 35 34 33 31 29 28 27 27 25 23 21 19 16 13 13 13 13 13 11 8 6 3 2 1 360 359 358 353 345 338 329 288 277 291 286 288 289 290 291 287 281 302 286 280 277 273 277 282 282 276 264 249 247
95 68 64 70 77 71 56 51 52 53 57 57 57 59 60 61 61 60 60 59 58 56 55 52 50 47 44 41 39 37 36 35 33 32 31 31 28 27 25 24 22 20 20 18 17 15 13 12 10 9 8 6 4 2 2 360 358 359 360 359 358 350 343 312 296 287 287 286 282 281 280 281 292 303 281 276 279 278 276 276 280 279 272 256 250
93 94 84 82 82 79 81 64 57 53 53 58 59 60 60 62 62 61 60 59 57 56 54 52 51 49 46 43 40 38 36 35 33 31 30 28 27 25 24 23 20 18 16 14 14 15 13 12 11 9 6 3 2 359 359 356 355 355 356 357 356 353 349 339 292 282 282 279 279 281 279 276 281 284 284 281 280 280 278 278 278 279 275 262 253
106 107 104 94 85 88 80 75 65 68 59 52 55 55 59 61 63 64 64 61 60 58 54 52 50 48 45 42 40 38 37 35 34 32 30 27 24 22 20 19 18 17 15 12 11 10 9 8 8 7 6 3 359 356 354 351 352 353 352 351 349 345 335 327 297 275 273 276 282 280 279 281 281 292 289 288 284 282 282 282 280 279 276 265 255
119 126 113 103 92 86 83 79 71 65 67 70 57 46 52 56 59 62 63 63 61 58 55 52 50 47 44 42 40 39 37 35 33 31 28 25 21 20 17 16 15 14 12 11 9 7 5 4 2 1 1 359 356 352 347 346 347 348 348 346 342 334 321 301 281 276 269 272 269 268 268 271 285 280 278 277 281 285 286 284 283 281 278 269 251
124 119 113 114 106 103 97 87 74 73 68 63 63 57 41 48 55 59 60 62 60 58 56 51 47 44 41 38 32 36 35 35 29 32 27 26 19 14 12 12 11 9 8 7 5 4 2 1 358 356 355 352 348 342 338 338 343 341 342 341 335 327 307 281 282 288 284 273 269 262 263 276 283 283 280 275 275 278 283 285 283 282 282 276 249
133 136 126 118 112 111 109 95 87 78 75 73 69 69 48 38 45 51 55 57 55 56 54 48 46 37 34 22 20 26 30 36 25 26 21 23 20 11 10 10 10 6 4 2 360 359 357 356 355 351 350 346 341 332 323 327 333 335 335 331 328 311 296 315 315 303 290 279 279 277 272 276 271 275 279 280 278 277 276 280 282 281 281 280 265
161 154 148 135 132 124 119 109 98 92 83 78 76 66 46 31 64 50 54 52 52 52 50 50 42 44 23 22 18 27 21 19 18 12 11 15 18 4 4 6 8 6 0 358 355 355 352 350 349 347 344 340 335 321 312 320 323 323 324 316 300 292 308 312 313 304 296 293 283 277 286 281 277 273 271 273 276 274 275 275 277 280 278 277 275
166 159 154 149 147 138 130 134 120 110 106 100 91 89 101 67 61 69 59 65 53 60 57 49 45 39 28 32 32 27 16 19 15 8 359 2 10 357 357 357 360 1 355 348 347 349 348 343 343 342 337 334 325 320 330 326 316 315 305 282 275 302 299 303 304 296 294 288 286 286 315 302 289 280 278 278 276 275 274 274 275 275 275 274 274
172 165 162 166 160 149 159 138 133 129 121 115 112 115 110 102 95 89 95 77 77 67 72 62 54 42 35 36 36 30 14 20 19 352 324 324 339 338 344 344 347 350 351 340 343 341 339 334 335 335 326 323 322 329 327 324 321 320 303 300 317 305 307 295 286 283 283 287 286 291 302 295 289 288 283 278 276 275 274 273 273 273 273 272 268
172 173 162 165 171 165 155 146 140 139 147 126 139 128 115 117 115 117 113 110 95 91 80 75 64 51 44 48 38 28 8 12 3 340 305 343 349 337 336 334 343 346 347 337 339 347 334 332 331 329 319 335 332 326 326 322 319 322 319 313 311 312 303 298 289 283 281 279 277 282 287 289 289 288 285 281 277 277 275 275 274 273 272 270 266
171 158 159 169 173 169 160 153 149 146 140 142 150 124 116 135 128 137 120 112 104 96 92 87 70 57 53 49 41 31 15 19 11 359 356 352 347 347 347 350 349 343 345 343 344 342 339 340 338 336 338 330 328 324 321 317 317 315 314 310 307 305 301 295 291 288 284 280 276 284 291 287 287 286 285 283 281 279 279 276 276 274 272 269 265
157 171 173 165 173 171 171 158 161 152 145 142 131 110 198 131 124 121 140 101 99 90 88 80 77 58 53 36 39 36 23 21 14 6 0 357 355 355 352 350 347 345 347 343 345 339 337 338 336 337 332 330 320 317 315 311 309 309 307 307 304 302 298 296 293 288 286 284 280 284 286 290 287 286 284 283 280 277 274 275 275 275 271 269 267
172 178 168 169 168 169 170 170 165 152 146 136 141 148 121 119 92 33 336 96 90 84 77 80 69 61 47 42 28 28 23 19 12 9 4 359 359 356 352 351 349 351 349 343 344 340 336 335 332 328 325 318 315 312 309 305 303 302 300 299 298 297 296 294 291 290 288 287 285 285 284 281 281 283 284 284 281 277 274 272 272 273 273 269 266
176 175 173 169 170 172 169 174 167 164 157 165 164 151 133 114 121 148 99 37 19 71 75 66 73 68 48 37 23 27 21 18 13 8 2 1 357 350 345 345 347 347 345 343 342 340 337 335 330 324 319 315 311 309 306 304 301 297 295 295 297 293 292 293 291 288 286 285 286 284 282 280 280 281 283 283 282 280 276 270 268 270 270 270 268
184 176 173 173 172 169 172 177 167 170 165 168 171 149 146 148 149 151 114 12 85 77 70 81 71 64 54 39 25 20 20 15 12 3 354 359 348 345 338 343 336 340 340 338 340 333 330 329 327 326 323 318 313 309 308 302 298 298 295 292 291 291 290 287 286 286 285 284 285 285 287 287 284 282 280 280 280 281 278 275 271 268 269 269 269
186 173 173 177 170 170 178 177 173 171 166 177 167 162 156 153 157 145 128 166 104 90 98 74 68 58 56 39 32 21 17 11 6 355 351 352 343 343 338 340 336 339 339 335 336 326 322 319 320 319 317 316 312 311 306 300 298 294 292 289 286 287 287 285 285 284 284 284 284 284 278 276 282 284 283 282 280 278 278 277 275 273 268 267 266
178 180 178 176 168 173 178 173 170 167 174 178 166 154 151 154 148 154 147 134 130 127 95 85 70 66 54 41 34 25 7 8 358 353 346 346 344 342 339 336 333 341 336 330 331 322 316 313 318 317 317 315 309 308 304 302 298 295 291 288 286 286 284 283 282 282 282 282 284 285 284 278 274 277 280 281 280 277 275 274 274 272 269 269 267
183 181 180 172 171 180 176 174 175 174 179 170 157 150 149 141 148 151 134 117 114 99 92 86 83 76 62 47 32 20 357 344 1 352 347 337 338 337 331 334 331 332 328 325 323 315 310 309 309 309 306 304 307 306 305 301 296 294 294 291 288 284 282 282 282 280 280 280 282 282 284 285 279 274 277 279 280 278 276 272 270 270 270 268 267
186 179 177 172 178 180 175 176 177 173 182 164 151 141 136 139 136 129 120 126 109 93 96 94 85 83 79 57 32 10 346 357 353 353 336 329 330 325 328 326 325 330 322 318 315 311 311 314 315 312 306 307 299 300 300 295 296 297 295 291 292 287 284 283 280 280 278 278 279 280 281 283 283 279 270 269 272 275 275 273 269 267 268 267 266
177 180 174 181 177 172 172 167 176 174 166 151 144 139 134 125 123 132 120 168 108 114 114 102 88 90 92 76 11 11 355 357 349 337 330 325 323 318 322 320 324 323 315 315 320 320 316 318 319 318 317 310 307 304 304 299 293 294 293 294 290 288 286 284 283 280 279 276 276 276 279 279 280 281 282 276 272 271 273 273 272 268 265 266 265
175 179 181 180 176 172 168 167 174 159 150 139 135 126 124 139 152 151 150 156 129 139 125 113 121 120 19 84 15 360 351 347 339 328 323 318 315 310 312 311 323 315 308 315 313 312 312 317 320 319 313 307 305 303 300 297 298 295 291 290 288 290 286 281 280 280 278 277 274 273 274 273 274 278 277 279 275 270 271 271 272 270 267 264 264
184 177 173 175 177 173 173 166 165 151 147 134 134 134 146 154 158 158 154 154 152 148 135 139 159 178 177 309 27 326 337 334 327 322 312 309 304 303 301 309 311 303 304 302 302 301 309 309 307 307 310 305 304 300 298 294 293 293 293 289 285 283 284 281 279 277 276 278 275 274 273 274 273 272 275 278 280 279 276 276 275 275 274 269 264
182 172 176 171 173 168 173 169 165 155 148 144 144 153 159 162 169 163 152 160 156 145 146 168 194 195 213 284 334 308 311 320 313 307 296 292 293 293 295 296 301 297 290 292 289 293 298 298 297 297 293 298 296 293 292 292 294 291 289 284 281 279 275 276 275 276 278 272 273 271 271 271 272 271 271 270 273 276 274 269 267 267 264 263 265
179 176 176 174 177 170 174 172 159 158 153 155 162 166 166 167 171 160 148 145 143 153 162 188 213 223 233 268 308 293 287 302 297 291 285 284 281 283 285 288 289 285 281 281 285 287 285 292 298 297 298 297 297 300 299 297 295 292 287 281 279 274 272 270 268 269 270 270 271 271 269 271 273 273 276 278 278 276 278 276 273 269 262 257 257
177 177 172 175 171 167 170 161 159 156 156 157 159 163 163 170 155 158 149 152 165 168 187 209 216 242 252 290 281 272 270 280 285 279 279 283 284 281 279 281 283 278 276 282 285 285 286 293 293 296 293 292 296 296 298 301 298 292 287 282 279 273 270 268 268 265 263 266 265 266 268 268 268 270 271 272 273 277 278 278 279 277 272 261 250
175 177 175 175 173 169 171 168 172 167 162 165 170 178 181 181 175 160 168 170 170 173 179 210 222 239 247 265 263 260 269 275 278 278 275 279 284 282 281 278 270 268 269 273 279 291 298 297 294 296 296 293 285 289 298 304 300 293 285 280 275 277 269 262 263 261 261 259 262 266 266 263 262 263 262 264 265 269 273 276 276 274 273 272 269
180 178 178 180 181 177 174 178 173 170 174 174 180 182 181 175 175 192 183 159 168 146 191 188 207 238 245 263 260 257 258 268 271 277 279 281 274 278 276 270 263 264 263 266 276 282 286 287 292 290 292 295 294 294 300 307 303 297 292 291 289 275 266 260 256 256 254 257 259 262 261 263 263 264 267 267 270 271 273 275 274 275 274 276 273
188 181 183 184 184 181 182 177 172 178 186 184 176 180 185 186 178 166 167 157 166 185 183 169 204 231 252 252 254 252 255 266 275 278 278 272 276 275 274 271 270 268 271 272 272 275 276 281 291 295 286 292 293 298 301 309 304 318 320 316 296 275 268 261 248 248 252 258 260 265 270 274 276 278 274 273 272 271 272 272 273 274 274 276 276
182 184 185 181 182 180 185 181 176 178 182 176 171 178 170 150 169 138 153 129 125 316 308 285 270 256 251 250 253 254 260 264 269 270 273 268 267 272 273 276 270 270 273 274 272 276 282 287 296 298 306 292 285 288 290 302 304 312 300 293 311 328 313 243 239 224 257 277 284 281 278 276 275 276 278 278 276 276 274 272 274 274 275 274 277
181 185 189 187 179 183 186 179 176 180 176 173 176 160 148 133 124 102 91 324 314 324 275 264 251 244 246 245 245 253 261 266 267 265 260 265 270 273 276 272 271 270 271 277 279 282 283 292 296 298 300 302 301 301 296 290 288 315 314 321 305 304 303 309 330 296 283 274 270 268 270 275 283 285 284 281 282 285 285 287 284 284 283 283 285
189 189 188 185 174 184 182 177 175 179 175 168 171 158 141 147 145 129 160 222 239 246 242 238 222 224 234 228 234 246 261 266 264 261 264 268 269 266 270 272 272 270 270 273 278 283 289 285 288 289 292 296 301 297 292 278 269 255 279 309 310 290 285 307 334 302 266 279 283 287 283 285 284 285 283 281 282 282 282 279 276 273 273 272 269
195 193 185 181 175 183 177 176 174 176 174 170 169 163 170 176 172 186 197 208 218 207 220 231 217 227 239 244 250 247 256 261 261 264 263 265 269 270 271 273 271 271 268 276 280 282 277 282 282 284 285 279 283 293 287 276 259 251 247 250 254 282 306 308 318 302 310 274 281 277 281 280 281 289 284 282 282 281 279 278 279 279 278 276 275
197 181 177 181 183 179 173 175 176 174 169 166 165 167 170 181 190 200 219 228 238 233 245 266 259 266 276 273 271 263 255 267 271 271 269 270 274 277 274 271 272 271 273 273 278 281 285 281 282 275 280 283 278 279 281 287 280 253 245 245 254 261 271 291 294 308 304 308 271 282 287 278 282 279 277 280 278 278 279 280 278 276 273 270 268
183 174 178 182 184 181 178 178 174 171 162 165 167 173 174 178 182 194 210 226 231 241 233 255 268 275 271 274 282 279 275 271 277 278 275 278 277 275 269 265 266 268 273 272 279 282 283 278 270 272 271 266 268 268 281 279 275 279 261 259 257 260 260 261 266 273 287 298 303 294 262 286 289 279 281 280 279 276 274 274 274 273 272 269 269
179 179 183 183 179 179 178 174 176 174 166 166 166 172 178 178 182 192 209 221 230 239 239 241 257 260 270 273 274 280 280 273 266 270 268 269 264 263 263 263 264 268 269 273 271 274 271 271 270 269 265 267 265 270 273 273 270 270 274 265 263 264 263 260 263 263 265 284 286 290 296 296 285 283 281 283 281 280 278 276 273 273 273 271 268
180 179 180 173 179 177 179 177 179 176 163 166 166 167 173 172 185 195 204 213 217 225 227 235 237 247 259 264 267 271 273 276 268 264 266 262 260 261 262 263 265 268 268 269 271 267 266 263 261 260 262 263 264 262 260 267 268 268 262 269 268 266 263 261 253 253 260 255 267 292 295 298 296 288 288 284 287 286 281 278 276 273 272 271 270
181 181 182 183 183 179 181 181 179 169 165 168 168 169 172 179 189 194 199 211 216 223 230 230 231 236 251 257 261 269 276 278 285 280 270 264 261 261 262 264 271 269 267 268 266 267 267 267 265 263 260 259 261 260 260 261 263 264 262 259 261 260 260 261 262 257 259 265 272 273 283 290 288 291 283 285 284 283 283 281 278 276 273 270 267